[[{"header":{"parameterUnit":"m.s-1","parameterCategory":1,"la1":30.2991,"la2":30.254,"lo1":-89.0895,"lo2":-89.0444,"dy":0.0017,"dx":0.0017,"nx":28,"ny":28,"refTime":"2025-02-05T03:00:00:Z","depth":0,"parameterNumber":2,"parameterNumberName":"U-component_of_WINDS"},"data":[0,0,0,0,0,0,0,0,0,0,0,0,0,0,0,0,0,0,0,0,0,0,0,0,0,0,0,0,0,0,0,0,0,0,0,0,0,0,0,0,0,0,0,0,0,0,0,0,0,0,0,0,0,0,0,0,0,0,-0.5656,-0.5656,0,-0.5647,-0.5647,-0.5647,-0.5622,-0.5622,-0.5621,-0.5621,-0.5612,-0.5613,-0.5613,0,0,0,0,0,0,0,0,0,0,0,0,0,-0.5653,-0.5653,-0.5656,-0.5656,-0.5656,-0.5647,-0.5647,-0.5647,-0.5623,-0.5622,-0.5621,-0.5621,-0.5612,-0.5613,-0.5613,0,0,0,0,0,0,0,0,0,0,0,0,0,-0.565,-0.5653,-0.5656,-0.5643,-0.5641,-0.5647,-0.5647,-0.5647,-0.5623,-0.5622,-0.5621,-0.562,-0.5612,-0.5613,-0.5613,-0.5631,0,0,-0.5614,-0.5614,0,0,0,0,0,0,0,0,-0.5651,-0.5651,-0.5645,-0.5644,-0.5642,-0.5635,-0.5643,-0.5642,-0.5623,-0.563,-0.5621,-0.562,-0.5621,-0.562,-0.562,-0.5631,-0.563,-0.5614,-0.5615,-0.5615,-0.5615,0,0,0,0,0,0,0,-0.5651,-0.5651,-0.5653,-0.5645,-0.5643,-0.5637,-0.5636,-0.5642,-0.563,-0.5629,-0.5627,-0.5627,-0.562,-0.562,-0.562,-0.563,-0.5614,-0.5615,-0.5615,-0.5615,-0.5655,-0.5655,0,0,0,0,0,0,-0.5653,-0.5651,-0.5653,-0.5652,-0.5645,-0.5638,-0.5637,-0.5638,-0.563,-0.5628,-0.5627,-0.5626,-0.562,-0.562,-0.562,-0.5639,-0.5615,-0.5615,-0.5615,-0.5654,-0.5655,-0.5656,0,0,0,0,0,0,-0.5653,-0.5653,-0.5653,-0.5651,-0.5651,-0.5639,-0.5641,-0.5638,-0.5639,-0.5628,-0.5626,-0.563,-0.5619,-0.5619,-0.5628,-0.5639,-0.5615,-0.5616,-0.5653,-0.5654,-0.5655,-0.568,0,0,0,0,0,0,-0.5653,-0.5653,-0.566,-0.5652,-0.5651,-0.5662,-0.5642,-0.5639,-0.5639,-0.5637,-0.563,-0.5628,-0.5619,-0.5628,-0.5629,-0.5639,-0.5616,-0.5652,-0.5653,-0.5655,-0.5678,-0.5682,-0.5685,0,0,0,0,0,-0.5653,-0.5668,-0.566,-0.5661,-0.5659,-0.5663,-0.5662,-0.5651,-0.564,-0.5647,-0.564,-0.5628,-0.5638,-0.5629,-0.563,-0.564,-0.5651,-0.5653,-0.5655,-0.5677,-0.5681,-0.5685,0,0,0,0,0,0,-0.5678,-0.5666,-0.5658,-0.5671,-0.5668,-0.5658,-0.5666,-0.5656,-0.5656,-0.5654,-0.564,-0.5639,-0.565,-0.5646,-0.5636,-0.5657,-0.5642,-0.5645,-0.5659,-0.5663,-0.5667,-0.5667,-0.5616,0,0,0,0,0,-0.5685,-0.5689,-0.5679,-0.5691,-0.569,-0.5678,-0.5679,-0.5671,-0.5667,-0.5666,-0.566,-0.5657,-0.566,-0.5661,-0.5663,-0.5678,-0.5676,-0.5686,-0.5689,-0.5692,-0.5694,-0.5701,-0.5705,-0.5662,-0.5662,-0.5662,0,0,-0.57,-0.5694,-0.5697,-0.5696,-0.5692,-0.5696,-0.5677,-0.5683,-0.5686,-0.5667,-0.5675,-0.5671,-0.5667,-0.5679,-0.5684,-0.5676,-0.5705,-0.5694,-0.5697,-0.5697,-0.5703,-0.5707,-0.5711,-0.5663,-0.5663,-0.5662,0,0,-0.5728,-0.5724,-0.5733,-0.573,-0.5725,-0.5718,-0.572,-0.5712,-0.5708,-0.5716,-0.5702,-0.5706,-0.571,-0.5708,-0.5707,-0.5734,-0.5723,-0.5735,-0.5753,-0.576,-0.5764,-0.5766,-0.5775,-0.5779,-0.5737,-0.5737,-0.5737,0,-0.5747,-0.5752,-0.574,-0.5745,-0.5745,-0.5728,-0.5737,-0.5735,-0.5731,-0.5731,-0.5723,-0.5728,-0.5724,-0.5735,-0.5741,-0.5742,-0.5744,-0.5736,-0.5764,-0.5767,-0.5769,-0.5778,-0.5781,-0.5739,-0.5739,-0.5739,-0.5738,0,-0.5775,-0.5779,-0.5787,-0.5783,-0.5783,-0.5791,-0.578,-0.5782,-0.5774,-0.5767,-0.5775,-0.577,-0.577,-0.5772,-0.5764,-0.5781,-0.5777,-0.5767,-0.5751,-0.5775,-0.5783,-0.5786,-0.5741,-0.574,-0.574,-0.574,0,0,-0.5818,-0.5807,-0.581,-0.5808,-0.5801,-0.5804,-0.5811,-0.581,-0.5812,-0.5811,-0.5815,-0.582,-0.581,-0.5809,-0.5801,-0.5807,-0.5828,-0.5796,-0.5796,-0.5801,-0.5846,-0.5853,-0.5857,-0.5821,-0.5822,-0.5822,-0.5846,0,-0.5844,-0.5854,-0.5843,-0.5856,-0.5859,-0.5843,-0.5849,-0.5846,-0.584,-0.5842,-0.5836,-0.5839,-0.5826,-0.5825,-0.5831,-0.5824,-0.5837,-0.5823,-0.5825,-0.5825,-0.5825,-0.5861,-0.5868,-0.5891,-0.5849,-0.585,-0.585,0,-0.5875,-0.5874,-0.5887,-0.5879,-0.588,-0.5885,-0.5884,-0.5886,-0.5882,-0.5877,-0.5876,-0.5866,-0.5872,-0.5858,-0.5866,-0.5857,-0.5858,-0.5855,-0.5855,-0.5854,-0.5838,-0.586,-0.5898,-0.5901,-0.5855,-0.5854,-0.5854,0,-0.5904,-0.5906,-0.5914,-0.5913,-0.5904,-0.5908,-0.5904,-0.59,-0.59,-0.5899,-0.5899,-0.5899,-0.5898,-0.5899,-0.5889,-0.5879,-0.5898,-0.5883,-0.5894,-0.5894,-0.5897,-0.5897,-0.5935,-0.59,-0.59,-0.59,-0.5899,0,-0.5934,-0.5942,-0.5927,-0.5931,-0.594,-0.5928,-0.5937,-0.5932,-0.5928,-0.5931,-0.5918,-0.5921,-0.5908,-0.5911,-0.5903,-0.591,-0.5911,-0.5907,-0.5905,-0.5907,-0.5908,-0.5907,-0.5905,-0.59,-0.59,-0.59,-0.59,0,-0.5967,-0.5957,-0.5965,-0.5956,-0.5953,-0.596,-0.5952,-0.5956,-0.595,-0.5954,-0.5955,-0.5944,-0.5946,-0.5936,-0.5937,-0.5932,-0.5943,-0.5938,-0.5944,-0.5942,-0.5953,-0.5951,-0.5991,-0.5995,-0.5958,-0.5958,-0.5958,0,-0.5986,-0.5992,-0.5983,-0.5984,-0.5982,-0.5984,-0.5984,-0.5972,-0.5972,-0.5968,-0.5973,-0.5973,-0.5973,-0.5977,-0.5969,-0.597,-0.5964,-0.5978,-0.5964,-0.5967,-0.5963,-0.5963,-0.5963,-0.5981,-0.5981,-0.5982,-0.5982,0,-0.602,-0.6015,-0.6015,-0.6014,-0.6014,-0.6013,-0.601,-0.6012,-0.5999,-0.6001,-0.6002,-0.6002,-0.6002,-0.6003,-0.6001,-0.5998,-0.5988,-0.5987,-0.5989,-0.5991,-0.5994,-0.5991,-0.595,-0.5986,-0.5985,-0.5985,-0.5985,-0.5985,-0.6046,-0.605,-0.6045,-0.6046,-0.6042,-0.604,-0.6043,-0.6037,-0.6038,-0.6036,-0.603,-0.6032,-0.6028,-0.6025,-0.6022,-0.6024,-0.6018,-0.6021,-0.6022,-0.6023,-0.6024,-0.5994,-0.6024,-0.6024,-0.6024,-0.6024,-0.6024,0,-0.6079,-0.6074,-0.6075,-0.6072,-0.6072,-0.6063,-0.606,-0.6061,-0.6063,-0.606,-0.6059,-0.6061,-0.6062,-0.6054,-0.6054,-0.6057,-0.6052,-0.6057,-0.6056,-0.6055,-0.6031,-0.6028,-0.6061,-0.6061,-0.6061,-0.6061,-0.6061,-0.6061,-0.6096,-0.6102,-0.6096,-0.6101,-0.6096,-0.6098,-0.6097,-0.6095,-0.6092,-0.6094,-0.6094,-0.6089,-0.6084,-0.6083,-0.6084,-0.6081,-0.6081,-0.6088,-0.6084,-0.6061,-0.6057,-0.6054,-0.6051,-0.6088,-0.6088,-0.6108,-0.6109,-0.6109]},{"header":{"parameterUnit":"m.s-1","parameterCategory":1,"la1":30.2991,"la2":30.254,"lo1":-89.0895,"lo2":-89.0444,"dy":0.0017,"dx":0.0017,"nx":28,"ny":28,"refTime":"2025-02-05T03:00:00:Z","depth":0,"parameterNumber":3,"parameterNumberName":"V-component_of_WINDS"},"data":[0,0,0,0,0,0,0,0,0,0,0,0,0,0,0,0,0,0,0,0,0,0,0,0,0,0,0,0,0,0,0,0,0,0,0,0,0,0,0,0,0,0,0,0,0,0,0,0,0,0,0,0,0,0,0,0,0,0,2.2909,2.2909,0,2.2916,2.2917,2.2917,2.2933,2.2934,2.2934,2.2934,2.2939,2.2939,2.2939,0,0,0,0,0,0,0,0,0,0,0,0,0,2.2906,2.2906,2.2909,2.2909,2.2909,2.2916,2.2917,2.2917,2.2933,2.2934,2.2934,2.2934,2.2939,2.2939,2.2939,0,0,0,0,0,0,0,0,0,0,0,0,0,2.291,2.2906,2.2909,2.2918,2.2919,2.2916,2.2917,2.2917,2.2933,2.2934,2.2934,2.2935,2.2939,2.2939,2.2939,2.2926,0,0,2.2938,2.2937,0,0,0,0,0,0,0,0,2.291,2.291,2.2917,2.2917,2.2919,2.2924,2.2917,2.292,2.2933,2.2928,2.2934,2.2935,2.2933,2.2934,2.2934,2.2927,2.2927,2.2938,2.2937,2.2937,2.2937,0,0,0,0,0,0,0,2.2909,2.291,2.2912,2.2917,2.2918,2.2921,2.2922,2.2918,2.2927,2.2928,2.2929,2.293,2.2934,2.2934,2.2934,2.2927,2.2938,2.2937,2.2937,2.2937,2.2912,2.2911,0,0,0,0,0,0,2.2908,2.2909,2.2911,2.2912,2.2915,2.2921,2.2922,2.2922,2.2928,2.2929,2.293,2.2931,2.2934,2.2934,2.2934,2.2922,2.2937,2.2937,2.2937,2.2912,2.2911,2.2911,0,0,0,0,0,0,2.2908,2.2908,2.2911,2.2911,2.2912,2.2921,2.292,2.2922,2.2922,2.2929,2.293,2.2928,2.2935,2.2935,2.2929,2.2922,2.2937,2.2937,2.2913,2.2912,2.2911,2.2895,0,0,0,0,0,0,2.2908,2.2908,2.2904,2.2911,2.2912,2.2906,2.292,2.2922,2.2922,2.2923,2.2928,2.2929,2.2935,2.2929,2.2929,2.2922,2.2936,2.2913,2.2912,2.2911,2.2897,2.2894,2.2892,0,0,0,0,0,2.2908,2.2898,2.2904,2.2904,2.2907,2.2905,2.2906,2.2914,2.2921,2.2917,2.2922,2.2929,2.2923,2.2928,2.2928,2.2921,2.2914,2.2913,2.2911,2.2898,2.2895,2.2892,0,0,0,0,0,0,2.2888,2.2899,2.2905,2.2898,2.2901,2.2908,2.2903,2.2911,2.2911,2.2912,2.2921,2.2922,2.2915,2.2917,2.2923,2.291,2.292,2.2918,2.2909,2.2907,2.2904,2.2904,2.2936,0,0,0,0,0,2.2884,2.2882,2.2891,2.2884,2.2885,2.2894,2.2894,2.29,2.2903,2.2904,2.2908,2.291,2.2909,2.2908,2.2907,2.2897,2.2899,2.2892,2.289,2.2888,2.2887,2.2883,2.2881,2.2907,2.2907,2.2907,0,0,2.2873,2.2879,2.2877,2.288,2.2883,2.2882,2.2895,2.2892,2.2891,2.2903,2.2899,2.2902,2.2905,2.2897,2.2894,2.2899,2.288,2.2887,2.2885,2.2885,2.2882,2.2879,2.2877,2.2906,2.2907,2.2907,0,0,2.2853,2.2857,2.2852,2.2855,2.286,2.2867,2.2865,2.2872,2.2875,2.2871,2.2881,2.2879,2.2876,2.2879,2.2879,2.2862,2.2869,2.2861,2.285,2.2846,2.2844,2.2842,2.2837,2.2835,2.286,2.286,2.286,0,2.2839,2.2837,2.2848,2.2845,2.2847,2.286,2.2855,2.2857,2.2861,2.2861,2.2867,2.2865,2.2868,2.2862,2.2858,2.2857,2.2857,2.2861,2.2844,2.2842,2.2841,2.2836,2.2834,2.2859,2.2859,2.2859,2.2859,0,2.282,2.2819,2.2814,2.282,2.2821,2.2817,2.2826,2.2826,2.2832,2.2838,2.2834,2.2838,2.2839,2.2838,2.2843,2.2833,2.2836,2.2842,2.2852,2.2837,2.2833,2.2831,2.2858,2.2858,2.2858,2.2859,0,0,2.2787,2.28,2.2798,2.2802,2.2809,2.2808,2.2805,2.2808,2.2807,2.281,2.2808,2.2806,2.2813,2.2814,2.282,2.2817,2.2804,2.2824,2.2824,2.2821,2.2794,2.279,2.2787,2.2809,2.2809,2.2808,2.2794,0,2.277,2.2766,2.2776,2.277,2.277,2.2783,2.278,2.2784,2.2789,2.279,2.2795,2.2794,2.2803,2.2804,2.2801,2.2806,2.2799,2.2807,2.2807,2.2807,2.2807,2.2785,2.278,2.2766,2.2792,2.2792,2.2792,0,2.2748,2.2752,2.2746,2.2756,2.2756,2.2753,2.2757,2.2757,2.2762,2.2766,2.2768,2.2776,2.2774,2.2783,2.278,2.2785,2.2786,2.2788,2.2788,2.2789,2.2799,2.2785,2.2762,2.276,2.2789,2.2789,2.2789,0,2.2726,2.2729,2.2727,2.2729,2.274,2.2738,2.2742,2.2748,2.2749,2.2752,2.2753,2.2755,2.2756,2.2758,2.2766,2.2771,2.2762,2.2771,2.2765,2.2765,2.2763,2.2763,2.274,2.2762,2.2762,2.2762,2.2762,0,2.2705,2.2702,2.2717,2.2716,2.2712,2.2724,2.2719,2.2725,2.273,2.273,2.274,2.2739,2.275,2.275,2.2757,2.2754,2.2754,2.2757,2.2759,2.2757,2.2756,2.2757,2.2759,2.2762,2.2762,2.2762,2.2762,0,2.268,2.269,2.2689,2.27,2.2703,2.2699,2.2709,2.2707,2.2714,2.2713,2.2714,2.2724,2.2725,2.2734,2.2736,2.274,2.2735,2.2738,2.2734,2.2735,2.2729,2.273,2.2706,2.2704,2.2727,2.2727,2.2726,0,2.2666,2.2664,2.2676,2.2677,2.2681,2.2683,2.2685,2.2696,2.2697,2.2704,2.2702,2.2705,2.2707,2.2708,2.2715,2.2718,2.2721,2.2713,2.2722,2.272,2.2722,2.2723,2.2723,2.2711,2.2711,2.2711,2.271,0,2.2642,2.2648,2.2651,2.2656,2.2658,2.2663,2.2667,2.2667,2.268,2.2681,2.2683,2.2685,2.2689,2.2691,2.2695,2.2699,2.2707,2.2708,2.2707,2.2704,2.2702,2.2704,2.2729,2.2708,2.2708,2.2708,2.2709,2.2709,2.2622,2.2622,2.263,2.2634,2.2639,2.2644,2.2644,2.2651,2.2654,2.2659,2.2665,2.2666,2.2673,2.2679,2.2682,2.2683,2.2688,2.2686,2.2685,2.2685,2.2684,2.2702,2.2684,2.2684,2.2684,2.2684,2.2684,0,2.2599,2.2606,2.2609,2.2616,2.2619,2.2628,2.2634,2.2635,2.2637,2.2643,2.2646,2.2649,2.2652,2.266,2.2663,2.2663,2.2666,2.2663,2.2664,2.2664,2.2679,2.2681,2.266,2.266,2.266,2.266,2.266,2.266,2.2587,2.2587,2.2594,2.2597,2.2603,2.2606,2.2609,2.2613,2.2618,2.2622,2.2625,2.263,2.2637,2.2641,2.2644,2.2647,2.2648,2.2644,2.2647,2.2661,2.2663,2.2665,2.2667,2.2643,2.2643,2.2632,2.2632,2.2632]}]]